Weather History for Klamath Falls, OR

Change the Weather History Date:

Sunday, September 22, 2013

  Actual Average Record
Temperature  
Mean Temperature 48 °F 56 °F  
Max Temperature 57 °F 74 °F 90 °F (1987)
Min Temperature 38 °F 37 °F 26 °F (1968)
Degree Days  
Heating Degree Days 17 10  
Month to date heating degree days 120 149  
Since 1 July heating degree days 188 268  
Cooling Degree Days 0 0  
Month to date cooling degree days 17 9  
Year to date cooling degree days 285 168  
Moisture  
Dew Point 41 °F    
Average Humidity 78    
Maximum Humidity 93    
Minimum Humidity 54    
Precipitation  
Precipitation 0.00 in 0.02 in 0.42 in (1958)
Month to date precipitation 0.09 0.42  
Year to date precipitation 4.88 10.16  
Sea Level Pressure  
Sea Level Pressure 29.92 in    
Wind  
Wind Speed 7 mph (WSW)    
Max Wind Speed 17 mph    
Max Gust Speed 22 mph    
Visibility 10 miles    
Events      
T = Trace of Precipitation, MM = Missing Value Source: NWS Daily Summary

Daily Weather History Graph

Daily Weather History Graph

Search for Another Location

Airport:

Trip Planner

Search our weather history database for the weather conditions in past years. The results will help you decide how hot, cold, wet, or windy it might be!

Date:

Astronomy

Sep. 22, 2013 Rise Set
Actual Time 6:54 AM PDT 7:03 PM PDT
Civil Twilight 6:26 AM PDT 7:31 PM PDT
Nautical Twilight 5:53 AM PDT 8:04 PM PDT
Astronomical Twilight 5:20 AM PDT 8:37 PM PDT
Moon 8:52 PM PDT (9/22) 10:24 AM PDT (9/22)
Length of Visible Light 13h 04m
Length of Day
12h 08m
Waning Gibbous, 88% of the Moon is Illuminated
Sep 22
Waning Gibbous
Sep 26
Last Quarter
Oct 4
New
Oct 11
First Quarter
Oct 18
Full

Hourly Weather History & Observations

Time (PDT) Temp. Windchill Dew Point Humidity Pressure Visibility Wind Dir Wind Speed Gust Speed Precip Events Conditions
12:01 AM 46.4 °F 41.9 °F 42.8 °F 87% 29.88 in 10.0 mi West 9.2 mph - N/A   Overcast
12:53 AM 45.0 °F 40.6 °F 42.1 °F 90% 29.86 in 10.0 mi West 8.1 mph - N/A   Mostly Cloudy
1:53 AM 45.0 °F 43.5 °F 42.1 °F 90% 29.86 in 10.0 mi SSE 3.5 mph - N/A   Overcast
2:53 AM 42.1 °F 39.2 °F 39.0 °F 89% 29.88 in 10.0 mi West 4.6 mph - N/A   Clear
3:53 AM 41.0 °F - 37.9 °F 89% 29.87 in 10.0 mi Calm Calm - N/A   Clear
4:53 AM 41.0 °F 39.0 °F 39.9 °F 96% 29.87 in 10.0 mi South 3.5 mph - N/A   Clear
5:39 AM 41.0 °F - 39.2 °F 93% 29.92 in 10.0 mi Calm Calm - N/A   Mostly Cloudy
5:53 AM 41.0 °F 39.0 °F 39.0 °F 93% 29.89 in 10.0 mi ENE 3.5 mph - N/A   Overcast
6:53 AM 43.0 °F 39.5 °F 39.9 °F 89% 29.90 in 10.0 mi South 5.8 mph - N/A   Overcast
7:21 AM 42.8 °F 40.1 °F 41.0 °F 93% 29.93 in 10.0 mi South 4.6 mph - N/A   Overcast
7:53 AM 45.0 °F 43.5 °F 42.1 °F 90% 29.92 in 10.0 mi South 3.5 mph - N/A   Overcast
8:25 AM 44.6 °F 41.4 °F 41.0 °F 87% 29.95 in 10.0 mi SW 5.8 mph - N/A   Overcast
8:53 AM 46.0 °F 41.9 °F 41.0 °F 83% 29.93 in 10.0 mi WSW 8.1 mph - N/A   Overcast
9:33 AM 46.4 °F 42.9 °F 41.0 °F 81% 29.96 in 10.0 mi West 6.9 mph - N/A   Overcast
9:53 AM 46.9 °F - 39.9 °F 77% 29.94 in 10.0 mi West 8.1 mph - N/A   Overcast
10:40 AM 48.2 °F - 39.2 °F 71% 29.97 in 10.0 mi West 6.9 mph - N/A   Overcast
10:53 AM 48.0 °F - 39.9 °F 74% 29.95 in 10.0 mi West 8.1 mph - N/A   Overcast
11:44 AM 51.8 °F - 39.2 °F 62% 29.96 in 10.0 mi WSW 9.2 mph - N/A   Overcast
11:53 AM 52.0 °F - 39.9 °F 63% 29.92 in 10.0 mi WSW 13.8 mph 17.3 mph N/A   Overcast
12:00 PM 51.8 °F - 37.4 °F 58% 29.95 in 10.0 mi WSW 10.4 mph 17.3 mph N/A   Overcast
12:53 PM 53.1 °F - 37.9 °F 57% 29.91 in 10.0 mi West 9.2 mph 19.6 mph N/A   Mostly Cloudy
1:53 PM 55.0 °F - 39.9 °F 57% 29.90 in 10.0 mi West 11.5 mph - N/A   Overcast
2:53 PM 54.0 °F - 41.0 °F 62% 29.91 in 10.0 mi West 10.4 mph - N/A   Overcast
3:53 PM 54.0 °F - 41.0 °F 62% 29.91 in 10.0 mi WNW 6.9 mph - N/A   Overcast
4:53 PM 55.0 °F - 42.1 °F 62% 29.91 in 10.0 mi SW 8.1 mph - N/A   Overcast
5:53 PM 55.0 °F - 43.0 °F 64% 29.91 in 10.0 mi West 9.2 mph - N/A   Overcast
6:53 PM 54.0 °F - 43.0 °F 66% 29.91 in 10.0 mi WSW 9.2 mph - N/A   Overcast
7:53 PM 54.0 °F - 44.1 °F 69% 29.91 in 10.0 mi WSW 10.4 mph - N/A   Overcast
8:53 PM 51.1 °F - 45.0 °F 80% 29.94 in 10.0 mi WNW 8.1 mph - N/A   Overcast
9:53 PM 51.1 °F - 45.0 °F 80% 29.95 in 10.0 mi WNW 9.2 mph - N/A   Overcast
10:53 PM 50.0 °F - 46.0 °F 86% 29.95 in 10.0 mi Calm Calm - N/A   Mostly Cloudy
11:43 PM 50.0 °F - 46.4 °F 87% 30.00 in 10.0 mi Calm Calm - N/A   Overcast
11:53 PM 50.0 °F - 46.0 °F 86% 29.96 in 10.0 mi Calm Calm - N/A   Overcast